Location: Hysolar-Haus
(48.7436°N, 9.0965°E)
Time: 06:32:25
(UTC+00:00)

Envisat - Visible Passes

Search period start: 22 April 2019 00:00
Search period end: 02 May 2019 00:00
Orbit: 764 x 766 km, 98.2° (Epoch: 21 April)

Date Brightness Start Highest point End Pass type
(mag) Time Alt. Az. Time Alt. Az. Time Alt. Az.
22 Apr 6.0 19:33:02 10° WSW 19:35:03 12° W 19:37:05 10° WNW visible
25 Apr 5.8 19:20:44 10° WSW 19:23:40 15° W 19:26:38 10° NW visible
28 Apr 5.7 19:08:45 10° SW 19:12:18 19° W 19:15:53 10° NW visible
30 Apr 6.1 19:36:45 10° WSW 19:38:12 11° W 19:39:39 10° WNW visible
